[[{"header":{"parameterUnit":"m.s-1","parameterCategory":2,"la1":30.2991,"la2":30.254,"lo1":-89.0895,"lo2":-89.0444,"dy":0.0017,"dx":0.0017,"nx":28,"ny":28,"refTime":"2024-06-20T21:00:00:Z","depth":"0","parameterNumber":2,"parameterNumberName":"U-component_of_CURRENTS"},"data":[0,0,0,0,0,0,0,0,0,0,0,0,0,0,0,0,0,0,0,0,0,0,0,0,0,0,0,0,0,0,0,0,0,0,0,0,0,0,0,0,0,0,0,0,0,0,0,0,0,0,0,0,0,0,0,0,0,0,0.411,0.411,0,0.4112,0.4112,0.4112,0.4098,0.4098,0.4098,0.4098,0.4062,0.4061,0.406,0,0,0,0,0,0,0,0,0,0,0,0,0,0.4108,0.4107,0.411,0.411,0.411,0.4112,0.4112,0.4112,0.4098,0.4098,0.4098,0.4098,0.4062,0.4061,0.406,0,0,0,0,0,0,0,0,0,0,0,0,0,0.4106,0.4107,0.4109,0.4106,0.4106,0.4112,0.4112,0.4111,0.4098,0.4098,0.4098,0.4098,0.4062,0.4061,0.406,0.4053,0,0,0.4055,0.4055,0,0,0,0,0,0,0,0,0.4106,0.4105,0.4106,0.4107,0.4107,0.4108,0.4098,0.4091,0.4098,0.4097,0.4098,0.4098,0.4076,0.4073,0.4069,0.4051,0.405,0.4055,0.4054,0.4054,0.4053,0,0,0,0,0,0,0,0.4106,0.4105,0.4107,0.4107,0.4107,0.411,0.4109,0.4097,0.4083,0.4097,0.4097,0.4103,0.4075,0.4071,0.4068,0.4049,0.4055,0.4054,0.4053,0.4053,0.409,0.4091,0,0,0,0,0,0,0.4112,0.4105,0.4107,0.4107,0.411,0.4111,0.4109,0.4105,0.4084,0.4083,0.4103,0.4103,0.4073,0.407,0.4067,0.4099,0.4054,0.4053,0.4052,0.4088,0.409,0.4092,0,0,0,0,0,0,0.4112,0.4112,0.4107,0.411,0.411,0.4111,0.4106,0.4105,0.411,0.409,0.4087,0.4111,0.4073,0.4069,0.4074,0.4096,0.4052,0.4051,0.4086,0.4088,0.4091,0.4137,0,0,0,0,0,0,0.4112,0.4111,0.4108,0.411,0.411,0.4122,0.4106,0.4105,0.4115,0.4114,0.4096,0.4092,0.4073,0.4077,0.4073,0.4093,0.405,0.4083,0.4087,0.409,0.4133,0.4141,0.4148,0,0,0,0,0,0.4111,0.4105,0.4108,0.4108,0.4106,0.4123,0.4124,0.4122,0.4116,0.4124,0.4116,0.4093,0.4096,0.4077,0.4072,0.4093,0.4082,0.4086,0.409,0.413,0.414,0.4148,0,0,0,0,0,0,0.409,0.4104,0.4106,0.4101,0.412,0.4123,0.4128,0.413,0.4129,0.4127,0.4105,0.4102,0.412,0.4104,0.4083,0.4118,0.4089,0.4092,0.4121,0.413,0.4137,0.4143,0.4048,0,0,0,0,0,0.4089,0.4091,0.411,0.4105,0.4119,0.4127,0.4133,0.4136,0.4139,0.4138,0.4126,0.4122,0.4132,0.4128,0.4129,0.4137,0.4152,0.4153,0.416,0.4166,0.4171,0.4234,0.4247,0.4105,0.4105,0.4105,0,0,0.4073,0.4086,0.4083,0.4103,0.4114,0.4131,0.4129,0.4146,0.4156,0.4134,0.4138,0.4145,0.4143,0.416,0.4166,0.4147,0.4215,0.4171,0.4176,0.4178,0.424,0.4254,0.4266,0.4108,0.4107,0.4107,0,0,0.4056,0.4066,0.4068,0.4093,0.4124,0.4137,0.4148,0.4162,0.4168,0.4181,0.4179,0.4204,0.4195,0.4209,0.4213,0.4262,0.4256,0.4263,0.4293,0.4355,0.4367,0.4378,0.4412,0.4426,0.426,0.426,0.4261,0,0.4038,0.4043,0.4072,0.4092,0.411,0.4143,0.4156,0.4172,0.4184,0.4204,0.4189,0.4232,0.4222,0.4269,0.4283,0.4277,0.4303,0.4256,0.4364,0.4375,0.4385,0.4418,0.4432,0.4263,0.4263,0.4263,0.4262,0,0.403,0.404,0.4049,0.4084,0.4112,0.413,0.4169,0.4197,0.4212,0.4232,0.4284,0.4288,0.4321,0.4324,0.431,0.4384,0.4376,0.437,0.4339,0.4403,0.4433,0.4447,0.4267,0.4266,0.4265,0.4265,0,0,0.3964,0.4028,0.4028,0.4048,0.411,0.4127,0.4175,0.4227,0.427,0.4294,0.4345,0.4372,0.4397,0.4405,0.4409,0.4448,0.4533,0.4436,0.4438,0.4464,0.466,0.4654,0.4668,0.4551,0.4554,0.4556,0.4651,0,0.3944,0.3971,0.4014,0.4041,0.406,0.4128,0.4169,0.4229,0.4285,0.4345,0.439,0.4437,0.4423,0.4447,0.4493,0.4529,0.4573,0.4507,0.46,0.4602,0.4585,0.4686,0.4524,0.4596,0.4664,0.4667,0.4668,0,0.3915,0.3941,0.3963,0.403,0.4046,0.4075,0.4173,0.4219,0.4334,0.4382,0.4466,0.4503,0.4579,0.455,0.4663,0.4625,0.4649,0.4667,0.4671,0.4658,0.4623,0.4546,0.4619,0.45,0.469,0.4688,0.4686,0,0.3848,0.3901,0.3917,0.3939,0.4024,0.4058,0.4112,0.4229,0.4286,0.4419,0.4474,0.4582,0.4639,0.4701,0.4755,0.4717,0.4873,0.4826,0.4842,0.484,0.4718,0.4701,0.468,0.4909,0.4908,0.4908,0.4908,0,0.3804,0.3812,0.3889,0.3896,0.3933,0.4015,0.4082,0.417,0.4297,0.4379,0.4486,0.4579,0.4683,0.4781,0.4804,0.489,0.4926,0.4874,0.4882,0.4729,0.4713,0.4615,0.4545,0.4912,0.4911,0.491,0.491,0,0.3722,0.377,0.3795,0.3876,0.3902,0.3933,0.4049,0.41,0.424,0.4356,0.4398,0.4599,0.4754,0.4842,0.4967,0.4959,0.4889,0.5038,0.4845,0.4829,0.4706,0.4645,0.4455,0.4329,0.5062,0.5063,0.5064,0,0.3681,0.3687,0.3762,0.3772,0.3806,0.3867,0.3905,0.4054,0.4121,0.4371,0.4412,0.4627,0.4774,0.4973,0.5022,0.5094,0.4918,0.4954,0.4852,0.4707,0.4645,0.4422,0.4312,0.4699,0.4696,0.4694,0.4692,0,0.3605,0.3639,0.3658,0.3682,0.3713,0.3748,0.3823,0.387,0.406,0.4173,0.437,0.4525,0.479,0.485,0.498,0.4993,0.4708,0.4916,0.4815,0.4414,0.4118,0.3997,0.4615,0.4675,0.4676,0.4678,0.4679,0.4679,0.3546,0.3538,0.3565,0.3569,0.3596,0.3602,0.359,0.3693,0.3789,0.394,0.4214,0.4382,0.4608,0.4802,0.4777,0.4666,0.4622,0.4527,0.4483,0.4283,0.4098,0.4683,0.4727,0.4729,0.4731,0.4733,0.4734,0,0.3442,0.3437,0.3443,0.343,0.3389,0.3457,0.3496,0.3468,0.351,0.3746,0.391,0.4157,0.4252,0.4377,0.4411,0.4258,0.4011,0.4131,0.3763,0.3693,0.4272,0.4197,0.4068,0.4068,0.4068,0.4068,0.4069,0.4069,0.3388,0.3334,0.3322,0.3211,0.3198,0.3102,0.3088,0.3099,0.3206,0.3345,0.3497,0.3705,0.4025,0.413,0.4015,0.3903,0.3568,0.3402,0.3388,0.3801,0.3832,0.3862,0.3776,0.3561,0.356,0.2643,0.2636,0.2631]},{"header":{"parameterUnit":"m.s-1","parameterCategory":2,"la1":30.2991,"la2":30.254,"lo1":-89.0895,"lo2":-89.0444,"dy":0.0017,"dx":0.0017,"nx":28,"ny":28,"refTime":"2024-06-20T21:00:00:Z","depth":"0","parameterNumber":3,"parameterNumberName":"V-component_of_CURRENTS"},"data":[0,0,0,0,0,0,0,0,0,0,0,0,0,0,0,0,0,0,0,0,0,0,0,0,0,0,0,0,0,0,0,0,0,0,0,0,0,0,0,0,0,0,0,0,0,0,0,0,0,0,0,0,0,0,0,0,0,0,0.0271,0.027,0,0.0208,0.0207,0.0206,0.0161,0.0161,0.016,0.016,0.0074,0.0072,0.007,0,0,0,0,0,0,0,0,0,0,0,0,0,0.0279,0.028,0.0271,0.027,0.027,0.0208,0.0207,0.0206,0.0161,0.0161,0.016,0.016,0.0075,0.0072,0.007,0,0,0,0,0,0,0,0,0,0,0,0,0,0.025,0.028,0.0271,0.0241,0.0238,0.0209,0.0207,0.0206,0.0161,0.0161,0.016,0.016,0.0076,0.0072,0.0069,0.0056,0,0,0.006,0.0058,0,0,0,0,0,0,0,0,0.0252,0.025,0.0246,0.0243,0.024,0.0194,0.0179,0.0155,0.0161,0.0188,0.016,0.016,0.0114,0.0107,0.0093,0.0052,0.0048,0.0059,0.0057,0.0056,0.0055,0,0,0,0,0,0,0,0.0254,0.0252,0.0244,0.0246,0.0242,0.0207,0.0203,0.0174,0.0151,0.0186,0.0183,0.0179,0.0111,0.0097,0.0091,0.0047,0.0059,0.0057,0.0055,0.0053,-0.0003,-0.0002,0,0,0,0,0,0,0.0271,0.0254,0.0246,0.0242,0.0248,0.0207,0.0202,0.0207,0.0152,0.0144,0.0179,0.0177,0.0102,0.0095,0.0088,0.0091,0.0056,0.0053,0.0051,-0.0003,-0.0003,-0.0002,0,0,0,0,0,0,0.0271,0.0271,0.0249,0.0248,0.0243,0.0208,0.0213,0.0206,0.0197,0.0148,0.0139,0.0179,0.0102,0.0092,0.0072,0.0087,0.0052,0.0049,-0.0004,-0.0003,-0.0002,0.0084,0,0,0,0,0,0,0.0272,0.0272,0.028,0.025,0.0244,0.0245,0.0213,0.0205,0.0196,0.0193,0.0144,0.0136,0.0101,0.0077,0.0069,0.0082,0.0046,-0.0004,-0.0003,-0.0003,0.008,0.0087,0.0093,0,0,0,0,0,0.0272,0.0289,0.0281,0.028,0.0257,0.0246,0.024,0.0211,0.0197,0.0201,0.0166,0.0137,0.0076,0.0075,0.0065,0.0078,-0.0004,-0.0004,-0.0003,0.0078,0.0086,0.0093,0,0,0,0,0,0,0.0295,0.0285,0.0276,0.0288,0.0274,0.0239,0.0241,0.022,0.0195,0.0193,0.0143,0.0132,0.0117,0.0086,0.0086,0.0063,0.0031,0.003,0.0095,0.0102,0.0109,0.0134,0.0044,0,0,0,0,0,0.0306,0.0319,0.0298,0.031,0.0307,0.0275,0.0267,0.0251,0.0225,0.0213,0.0178,0.0141,0.0112,0.01,0.0066,0.0057,0.0022,0.0058,0.0064,0.007,0.0083,0.0039,0.0043,0.0001,0.0001,0.0001,0,0,0.0316,0.0315,0.0321,0.0316,0.0303,0.0313,0.027,0.0268,0.0275,0.0208,0.0204,0.0161,0.0113,0.0101,0.0092,0.0079,0.0063,0.0071,0.0077,0.0087,0.0041,0.0045,0.0048,0.0001,0.0001,0.0001,0,0,0.0353,0.0346,0.0371,0.0366,0.0359,0.0344,0.035,0.0321,0.0307,0.0295,0.0249,0.0218,0.0174,0.0145,0.0124,0.0146,0.0095,0.0134,0.0191,0.0149,0.0152,0.0154,0.0116,0.0115,0.0141,0.0141,0.0141,0,0.0365,0.0397,0.0375,0.0397,0.0404,0.0367,0.0394,0.0375,0.0343,0.0338,0.0307,0.0243,0.0196,0.0187,0.019,0.0162,0.013,0.0169,0.0158,0.016,0.0161,0.0121,0.0118,0.0146,0.0145,0.0145,0.0144,0,0.042,0.0443,0.0458,0.048,0.0482,0.05,0.0478,0.0474,0.0449,0.0426,0.0403,0.0334,0.03,0.0275,0.0238,0.0229,0.0202,0.0169,0.0143,0.0171,0.0126,0.0122,0.0152,0.015,0.0149,0.0148,0,0,0.046,0.0491,0.05,0.0529,0.053,0.0544,0.0556,0.056,0.0582,0.0524,0.0536,0.0465,0.0423,0.0397,0.0341,0.03,0.027,0.0247,0.0243,0.0218,0.0181,0.0174,0.0167,0.0236,0.0236,0.0236,0.0148,0,0.0513,0.0582,0.0578,0.0644,0.0678,0.0652,0.0675,0.067,0.065,0.0649,0.0569,0.0554,0.0473,0.0459,0.0405,0.0309,0.0263,0.0298,0.015,0.0146,0.0144,0.0163,0.022,0.0148,0.0143,0.0142,0.0142,0,0.0576,0.0617,0.0692,0.0743,0.0756,0.0788,0.0827,0.0841,0.0821,0.0803,0.0763,0.0694,0.063,0.0551,0.0403,0.0431,0.0317,0.0231,0.0225,0.0188,0.0131,0.0118,0.014,-0.0051,0.0134,0.0135,0.0135,0,0.0638,0.0701,0.0772,0.0787,0.0832,0.0864,0.0889,0.0893,0.0928,0.0904,0.0917,0.0818,0.0786,0.0627,0.0445,0.0422,0.028,0.0221,0.0105,0.0102,0.0108,0.0107,-0.0062,0.0111,0.0111,0.0111,0.0112,0,0.0708,0.0762,0.0813,0.0852,0.0948,0.0946,0.1037,0.1042,0.1066,0.1137,0.1008,0.1038,0.0804,0.0689,0.0494,0.0304,0.0314,0.0125,0.0084,0.0139,0.0142,-0.0059,-0.0164,0.0108,0.0109,0.0109,0.011,0,0.077,0.0797,0.0883,0.0951,0.0983,0.1055,0.1147,0.1211,0.1214,0.13,0.1297,0.1209,0.1072,0.0824,0.0584,0.0395,0.0092,0.0115,0.02,0.0171,-0.0125,-0.0226,-0.0431,-0.0511,-0.0034,-0.0034,-0.0035,0,0.0807,0.0861,0.0966,0.1031,0.107,0.1172,0.125,0.129,0.1373,0.1426,0.1484,0.1372,0.1348,0.0982,0.0631,0.0294,0.0092,0.01,0.0055,-0.0124,-0.0268,-0.0347,-0.0405,0.009,0.0091,0.0091,0.0091,0,0.0882,0.0919,0.0995,0.1131,0.1231,0.135,0.1467,0.1555,0.1626,0.1712,0.1814,0.1796,0.1464,0.1171,0.0691,0.0443,-0.001,0.0098,-0.0111,-0.0197,-0.0271,-0.037,0.0124,0.0095,0.0095,0.0095,0.0094,0.0094,0.094,0.1009,0.1112,0.1244,0.1365,0.152,0.1632,0.1778,0.1948,0.2096,0.2074,0.2116,0.1672,0.1043,0.0666,0.0029,0.0001,-0.0164,-0.0275,-0.0343,-0.0408,0.0099,0.0038,0.0037,0.0036,0.0036,0.0035,0,0.1014,0.1093,0.1215,0.1375,0.1515,0.1568,0.1773,0.1905,0.2139,0.2299,0.2401,0.2259,0.1691,0.1077,0.0222,-0.0248,-0.0419,-0.0509,-0.0615,-0.0661,-0.0224,-0.0206,-0.0294,-0.0294,-0.0294,-0.0293,-0.0293,-0.0293,0.1055,0.1179,0.1241,0.1478,0.1592,0.1787,0.1912,0.2133,0.2306,0.253,0.261,0.2624,0.2214,0.0669,-0.0383,-0.0634,-0.0941,-0.1005,-0.1191,-0.0901,-0.0877,-0.0855,-0.0864,-0.1088,-0.1089,-0.1547,-0.1551,-0.1555]}],[{"header":{"parameterUnit":"m.s-1","parameterCategory":2,"la1":30.2991,"la2":30.254,"lo1":-89.0895,"lo2":-89.0444,"dy":0.0017,"dx":0.0017,"nx":28,"ny":28,"refTime":"2024-06-20T21:00:00:Z","depth":"2","parameterNumber":2,"parameterNumberName":"U-component_of_CURRENTS"},"data":[0,0,0,0,0,0,0,0,0,0,0,0,0,0,0,0,0,0,0,0,0,0,0,0,0,0,0,0,0,0,0,0,0,0,0,0,0,0,0,0,0,0,0,0,0,0,0,0,0,0,0,0,0,0,0,0,0,0,0.3731,0.3731,0,0.3748,0.3748,0.3748,0.3748,0.3748,0.3748,0.3748,0.3736,0.3735,0.3735,0,0,0,0,0,0,0,0,0,0,0,0,0,0.3712,0.3712,0.3731,0.3731,0.3732,0.3748,0.3748,0.3748,0.3748,0.3748,0.3748,0.3748,0.3736,0.3735,0.3735,0,0,0,0,0,0,0,0,0,0,0,0,0,0.3721,0.3712,0.3731,0.3736,0.3737,0.3748,0.3748,0.3748,0.3748,0.3748,0.3748,0.3748,0.3736,0.3736,0.3735,0.3729,0,0,0.3733,0.3733,0,0,0,0,0,0,0,0,0.372,0.3721,0.3735,0.3736,0.3737,0.3749,0.3737,0.3741,0.3748,0.3741,0.3748,0.3748,0.3739,0.3738,0.3738,0.3729,0.3728,0.3733,0.3733,0.3733,0.3732,0,0,0,0,0,0,0,0.372,0.3721,0.3734,0.3735,0.3737,0.3743,0.3744,0.3738,0.3736,0.3741,0.3742,0.3749,0.3739,0.3738,0.3737,0.3728,0.3733,0.3733,0.3732,0.3732,0.3786,0.3788,0,0,0,0,0,0,0.3723,0.372,0.3734,0.3735,0.3732,0.3743,0.3744,0.3742,0.3737,0.3737,0.3749,0.3749,0.3739,0.3738,0.3737,0.3783,0.3733,0.3732,0.3732,0.3784,0.3786,0.3788,0,0,0,0,0,0,0.3722,0.3724,0.3733,0.3731,0.3733,0.3744,0.3742,0.3743,0.3756,0.3744,0.3743,0.3763,0.3739,0.3738,0.3754,0.378,0.3732,0.3731,0.3782,0.3785,0.3787,0.384,0,0,0,0,0,0,0.3721,0.3723,0.3725,0.3731,0.3733,0.3754,0.3742,0.3743,0.3761,0.3761,0.3755,0.3753,0.3739,0.3755,0.3753,0.3778,0.3731,0.378,0.3783,0.3786,0.3836,0.3845,0.3852,0,0,0,0,0,0.3721,0.3721,0.3725,0.3727,0.3734,0.3755,0.3757,0.3762,0.3761,0.3773,0.3775,0.3754,0.3775,0.3756,0.3753,0.3779,0.3778,0.3782,0.3786,0.3833,0.3843,0.3851,0,0,0,0,0,0,0.3706,0.3722,0.3725,0.3729,0.3749,0.3756,0.3767,0.3773,0.3782,0.3785,0.377,0.3769,0.3797,0.3783,0.3762,0.3808,0.3776,0.378,0.3813,0.3822,0.383,0.3834,0.373,0,0,0,0,0,0.3706,0.3714,0.3733,0.3736,0.375,0.3762,0.3772,0.378,0.3789,0.3794,0.379,0.3795,0.3809,0.3812,0.3818,0.3834,0.3844,0.3853,0.3861,0.3867,0.3872,0.3928,0.3941,0.3801,0.3801,0.3801,0,0,0.3697,0.3711,0.3711,0.3735,0.3749,0.377,0.3768,0.3791,0.3807,0.379,0.3809,0.382,0.3822,0.3848,0.3859,0.3839,0.3912,0.3872,0.3877,0.3879,0.3933,0.3947,0.3959,0.3804,0.3804,0.3803,0,0,0.3689,0.3703,0.371,0.3735,0.3768,0.3782,0.3795,0.3816,0.3828,0.3851,0.3852,0.3882,0.3887,0.3902,0.3908,0.3961,0.3955,0.3967,0.4001,0.4056,0.4067,0.4078,0.4105,0.4118,0.3965,0.3966,0.3966,0,0.3678,0.3689,0.3716,0.3739,0.3759,0.3791,0.3809,0.383,0.3852,0.3875,0.3865,0.392,0.3915,0.3965,0.3982,0.3978,0.4001,0.3962,0.4065,0.4076,0.4086,0.4111,0.4125,0.3969,0.3968,0.3968,0.3968,0,0.3679,0.3695,0.3707,0.3745,0.3774,0.3797,0.3836,0.387,0.3891,0.3914,0.3974,0.3982,0.402,0.4026,0.4014,0.4088,0.408,0.4072,0.4039,0.4103,0.4126,0.4139,0.3973,0.3972,0.3971,0.397,0,0,0.3627,0.3692,0.3695,0.3717,0.378,0.3799,0.3853,0.3908,0.3955,0.3986,0.4042,0.4075,0.4101,0.4111,0.4116,0.4153,0.4233,0.4142,0.4143,0.4164,0.4347,0.4306,0.4315,0.425,0.4253,0.4255,0.4334,0,0.3616,0.3649,0.3691,0.3727,0.3749,0.3815,0.3861,0.3923,0.3981,0.4046,0.409,0.4141,0.4128,0.4157,0.4199,0.4231,0.427,0.4211,0.4286,0.4288,0.4241,0.433,0.3979,0.4018,0.4346,0.4348,0.4349,0,0.3596,0.3624,0.3655,0.3725,0.3743,0.3779,0.388,0.3929,0.4043,0.409,0.4173,0.4213,0.4287,0.4258,0.4359,0.4327,0.4344,0.4357,0.436,0.4312,0.4272,0.4009,0.4028,0.437,0.4369,0.4367,0.4366,0,0.3534,0.3595,0.3618,0.3642,0.373,0.377,0.3828,0.3945,0.4003,0.4132,0.4188,0.4291,0.4345,0.44,0.4443,0.4413,0.4544,0.4502,0.4479,0.4475,0.4184,0.4151,0.4572,0.4572,0.4572,0.4572,0.4571,0,0.3497,0.3512,0.3595,0.3606,0.3653,0.3736,0.3811,0.3896,0.4022,0.41,0.4207,0.4289,0.4387,0.4473,0.449,0.4541,0.4592,0.4507,0.4508,0.4193,0.4162,0.4468,0.4455,0.4575,0.4574,0.4573,0.4573,0,0.342,0.3471,0.3504,0.3594,0.3624,0.3663,0.3786,0.3841,0.3977,0.4086,0.4128,0.431,0.4438,0.4519,0.4622,0.4598,0.4643,0.464,0.426,0.4216,0.4517,0.4506,0.4619,0.4619,0.4618,0.4618,0.4618,0,0.3381,0.3391,0.3477,0.3495,0.3536,0.3607,0.365,0.3798,0.3862,0.4093,0.4129,0.4319,0.4426,0.4578,0.458,0.4619,0.4677,0.4296,0.4175,0.4541,0.453,0.4519,0.4509,0.3797,0.3791,0.3785,0.378,0,0.3309,0.3348,0.3374,0.3412,0.3454,0.3496,0.3577,0.3622,0.3801,0.3901,0.4063,0.4183,0.4368,0.4282,0.436,0.4326,0.4265,0.4185,0.4672,0.3861,0.3778,0.3764,0.3778,0.373,0.3735,0.3738,0.3741,0.3743,0.3254,0.3254,0.3291,0.3309,0.3348,0.3359,0.3351,0.3443,0.3525,0.3633,0.3868,0.392,0.401,0.3972,0.3873,0.3793,0.4087,0.3872,0.3883,0.3902,0.3815,0.3738,0.3663,0.3668,0.3672,0.3675,0.3678,0,0.3161,0.3164,0.318,0.3183,0.3153,0.3228,0.3264,0.3223,0.3239,0.3396,0.3502,0.3306,0.3285,0.3362,0.3181,0.3208,0.311,0.3059,0.288,0.2937,0.2986,0.2844,0.2439,0.2434,0.243,0.2426,0,0,0.3112,0.3071,0.3064,0.2973,0.2973,0.2889,0.2875,0.2851,0.2903,0.2886,0.2892,0.315,0.3295,0.2818,0.2775,0.257,0.2717,0.2469,0.3478,0.3326,0.3369,0.3491,0.3343,0,0,0,0,0]},{"header":{"parameterUnit":"m.s-1","parameterCategory":2,"la1":30.2991,"la2":30.254,"lo1":-89.0895,"lo2":-89.0444,"dy":0.0017,"dx":0.0017,"nx":28,"ny":28,"refTime":"2024-06-20T21:00:00:Z","depth":"2","parameterNumber":3,"parameterNumberName":"V-component_of_CURRENTS"},"data":[0,0,0,0,0,0,0,0,0,0,0,0,0,0,0,0,0,0,0,0,0,0,0,0,0,0,0,0,0,0,0,0,0,0,0,0,0,0,0,0,0,0,0,0,0,0,0,0,0,0,0,0,0,0,0,0,0,0,0.0241,0.024,0,0.0183,0.0183,0.0182,0.0142,0.0142,0.0141,0.0141,0.0068,0.0066,0.0065,0,0,0,0,0,0,0,0,0,0,0,0,0,0.025,0.025,0.0241,0.024,0.0239,0.0184,0.0183,0.0182,0.0142,0.0142,0.0141,0.0141,0.0069,0.0067,0.0064,0,0,0,0,0,0,0,0,0,0,0,0,0,0.0223,0.025,0.0241,0.0214,0.0211,0.0184,0.0183,0.0181,0.0142,0.0142,0.0141,0.0141,0.0069,0.0067,0.0064,0.0053,0,0,0.0056,0.0055,0,0,0,0,0,0,0,0,0.0225,0.0223,0.0218,0.0216,0.0213,0.0171,0.0159,0.0138,0.0142,0.0166,0.0141,0.0141,0.0102,0.0097,0.0085,0.0049,0.0046,0.0056,0.0054,0.0053,0.0052,0,0,0,0,0,0,0,0.0227,0.0225,0.0216,0.0218,0.0214,0.0183,0.0179,0.0155,0.0135,0.0164,0.0162,0.0158,0.01,0.0087,0.0083,0.0045,0.0056,0.0053,0.0052,0.0051,0.0002,0.0002,0,0,0,0,0,0,0.0241,0.0227,0.0218,0.0215,0.022,0.0183,0.0179,0.0183,0.0135,0.0128,0.0158,0.0156,0.0092,0.0086,0.008,0.0084,0.0053,0.005,0.0049,0.0001,0.0002,0.0002,0,0,0,0,0,0,0.0242,0.0241,0.022,0.022,0.0216,0.0184,0.0188,0.0182,0.0174,0.0131,0.0124,0.0158,0.0092,0.0084,0.0066,0.008,0.0049,0.0047,0.0001,0.0002,0.0002,0.0079,0,0,0,0,0,0,0.0242,0.0242,0.0249,0.0222,0.0216,0.0217,0.0189,0.0181,0.0173,0.017,0.0128,0.0121,0.0091,0.0071,0.0064,0.0076,0.0045,0.0001,0.0001,0.0002,0.0076,0.0082,0.0087,0,0,0,0,0,0.0243,0.0258,0.025,0.0249,0.0228,0.0217,0.0212,0.0186,0.0174,0.0177,0.0147,0.0122,0.0069,0.0069,0.0061,0.0072,0.0,0.0001,0.0002,0.0074,0.0081,0.0087,0,0,0,0,0,0,0.0264,0.0255,0.0246,0.0256,0.0243,0.0212,0.0213,0.0194,0.0173,0.0171,0.0127,0.0118,0.0106,0.0078,0.0079,0.0059,0.003,0.0029,0.0088,0.0094,0.01,0.0123,0.0042,0,0,0,0,0,0.0274,0.0286,0.0266,0.0277,0.0273,0.0244,0.0236,0.0222,0.0199,0.0189,0.0158,0.0126,0.0101,0.009,0.0061,0.0054,0.0021,0.0055,0.0061,0.0066,0.0078,0.0036,0.004,0.0005,0.0005,0.0004,0,0,0.0284,0.0282,0.0287,0.0282,0.027,0.0279,0.0239,0.0238,0.0244,0.0185,0.0182,0.0143,0.0102,0.0092,0.0084,0.0073,0.0057,0.0066,0.0071,0.0081,0.0037,0.0041,0.0044,0.0005,0.0005,0.0005,0,0,0.0319,0.0312,0.0335,0.033,0.0322,0.0308,0.0313,0.0286,0.0273,0.0263,0.0222,0.0194,0.0156,0.013,0.0112,0.0131,0.0085,0.0121,0.0173,0.0132,0.0135,0.0137,0.0099,0.0097,0.0127,0.0127,0.0127,0,0.0331,0.0359,0.0338,0.0358,0.0364,0.0329,0.0354,0.0337,0.0307,0.0303,0.0275,0.0217,0.0176,0.0168,0.017,0.0145,0.0115,0.0153,0.014,0.0142,0.0142,0.0103,0.01,0.0131,0.0131,0.013,0.013,0,0.0381,0.0402,0.0416,0.0436,0.0437,0.0453,0.0433,0.0429,0.0405,0.0384,0.0363,0.03,0.027,0.0246,0.0213,0.0204,0.0179,0.015,0.0128,0.0151,0.0107,0.0103,0.0137,0.0135,0.0134,0.0133,0,0,0.0419,0.0447,0.0455,0.0482,0.0481,0.0495,0.0505,0.0509,0.0529,0.0475,0.0486,0.0421,0.0383,0.0359,0.0308,0.0268,0.0237,0.022,0.0216,0.0191,0.0151,0.0131,0.0123,0.0207,0.0207,0.0206,0.0118,0,0.0469,0.0532,0.0527,0.0589,0.0621,0.0596,0.0618,0.0613,0.0592,0.059,0.0516,0.0503,0.0428,0.0416,0.0365,0.0273,0.0229,0.0264,0.0125,0.0121,0.0107,0.0119,0.0156,0.0081,0.0113,0.0112,0.0112,0,0.0527,0.0564,0.0634,0.0682,0.0694,0.0724,0.076,0.0772,0.0751,0.0734,0.0696,0.0632,0.0571,0.0499,0.0358,0.0386,0.0279,0.0197,0.0191,0.0146,0.0093,0.0061,0.007,0.0103,0.0104,0.0105,0.0105,0,0.0584,0.0643,0.0708,0.0723,0.0765,0.0795,0.0819,0.0821,0.0851,0.0828,0.0838,0.0745,0.0712,0.0565,0.0391,0.0374,0.023,0.0182,0.0062,0.0059,0.0051,0.0048,0.0079,0.0079,0.0079,0.0079,0.0079,0,0.0648,0.0699,0.0747,0.0783,0.0874,0.0872,0.0956,0.096,0.0979,0.1038,0.0923,0.0941,0.0727,0.0612,0.0434,0.0245,0.026,0.0078,0.0038,0.0078,0.0078,0.0066,0.0065,0.0076,0.0077,0.0077,0.0078,0,0.0706,0.0731,0.0811,0.0875,0.0906,0.0974,0.1057,0.1114,0.1116,0.1185,0.1183,0.1092,0.0951,0.0722,0.0493,0.032,0.0126,0.0052,0.0114,0.0084,-0.0033,-0.0028,-0.0095,-0.0096,-0.0097,-0.0098,-0.0099,0,0.074,0.079,0.0888,0.0948,0.0984,0.1079,0.115,0.1188,0.1257,0.1292,0.1338,0.122,0.117,0.0818,0.0497,0.0183,0.0132,-0.0003,-0.0037,-0.0017,-0.005,-0.0043,-0.0037,-0.0023,-0.0024,-0.0024,-0.0024,0,0.0807,0.0842,0.0911,0.1035,0.1127,0.1236,0.1341,0.1417,0.1476,0.154,0.1602,0.156,0.1235,0.0933,0.0492,0.0276,0.0046,-0.0016,-0.0007,0.002,0.0044,0.0014,0.0019,-0.0025,-0.0025,-0.0025,-0.0024,-0.0024,0.0858,0.0919,0.1011,0.1131,0.1243,0.138,0.1477,0.1598,0.1736,0.183,0.1796,0.1746,0.1393,0.0841,0.0454,0.0038,0.0058,-0.0095,-0.0092,-0.009,-0.0061,-0.0039,-0.0118,-0.0119,-0.0119,-0.0119,-0.012,0,0.0918,0.0986,0.1096,0.1238,0.1364,0.1417,0.1597,0.1699,0.1878,0.1963,0.2012,0.168,0.1334,0.0909,0.0306,-0.0052,-0.0084,-0.0179,-0.0133,-0.0128,-0.0125,-0.0097,-0.0165,-0.0166,-0.0168,-0.0169,0,0,0.0948,0.1054,0.1108,0.1313,0.1419,0.1591,0.1699,0.1865,0.1974,0.206,0.2039,0.1967,0.1475,0.1029,0.0541,0.0188,0.0108,0.0111,0.019,0.031,0.0317,-0.0029,0.0025,0,0,0,0,0]}],[{"header":{"parameterUnit":"m.s-1","parameterCategory":2,"la1":30.2991,"la2":30.254,"lo1":-89.0895,"lo2":-89.0444,"dy":0.0017,"dx":0.0017,"nx":28,"ny":28,"refTime":"2024-06-20T21:00:00:Z","depth":"4","parameterNumber":2,"parameterNumberName":"U-component_of_CURRENTS"},"data":[0,0,0,0,0,0,0,0,0,0,0,0,0,0,0,0,0,0,0,0,0,0,0,0,0,0,0,0,0,0,0,0,0,0,0,0,0,0,0,0,0,0,0,0,0,0,0,0,0,0,0,0,0,0,0,0,0,0,0.2569,0.257,0,0.2651,0.2652,0.2652,0.2734,0.2736,0.2737,0.2738,0.2833,0.2835,0.2836,0,0,0,0,0,0,0,0,0,0,0,0,0,0.248,0.2481,0.2569,0.257,0.2571,0.2651,0.2652,0.2653,0.2734,0.2736,0.2737,0.2739,0.2833,0.2835,0.2836,0,0,0,0,0,0,0,0,0,0,0,0,0,0.2534,0.2482,0.2568,0.2623,0.2629,0.2651,0.2652,0.2653,0.2734,0.2736,0.2738,0.274,0.2832,0.2834,0.2836,0.281,0,0,0.2842,0.2843,0,0,0,0,0,0,0,0,0.2531,0.2537,0.2614,0.2619,0.2626,0.2686,0.2656,0.2707,0.2733,0.2692,0.2738,0.2741,0.2785,0.2791,0.2799,0.2814,0.2818,0.2843,0.2844,0.2845,0.2845,0,0,0,0,0,0,0,0.2527,0.2534,0.2599,0.2615,0.2622,0.2643,0.2653,0.2666,0.2725,0.2695,0.2702,0.2714,0.2789,0.2797,0.2802,0.282,0.2843,0.2844,0.2846,0.2846,0.2977,0.2979,0,0,0,0,0,0,0.252,0.253,0.2596,0.2602,0.2585,0.2643,0.2654,0.2663,0.2725,0.2737,0.2712,0.2718,0.2793,0.28,0.2806,0.292,0.2845,0.2847,0.2848,0.2975,0.2978,0.298,0,0,0,0,0,0,0.2517,0.2524,0.2593,0.257,0.2581,0.2643,0.2653,0.2664,0.2727,0.2738,0.275,0.2771,0.2795,0.2803,0.2871,0.2919,0.2847,0.2849,0.2972,0.2976,0.2979,0.3058,0,0,0,0,0,0,0.2514,0.2523,0.2552,0.2569,0.2582,0.2641,0.2651,0.2664,0.2729,0.2738,0.2791,0.2799,0.2797,0.2869,0.2873,0.2921,0.2851,0.2969,0.2974,0.2978,0.3052,0.3064,0.3073,0,0,0,0,0,0.2511,0.2533,0.2553,0.2562,0.2611,0.2642,0.2651,0.27,0.2731,0.2763,0.2808,0.28,0.2899,0.2872,0.2877,0.2926,0.2967,0.2973,0.2978,0.3048,0.3061,0.3073,0,0,0,0,0,0,0.251,0.2544,0.2566,0.26,0.2637,0.2658,0.2701,0.2728,0.2787,0.2815,0.2825,0.2836,0.2914,0.291,0.2879,0.2978,0.2933,0.2939,0.2985,0.2997,0.3008,0.3004,0.2853,0,0,0,0,0,0.2521,0.2553,0.2582,0.2617,0.264,0.268,0.2711,0.2743,0.2784,0.2815,0.2851,0.2892,0.2928,0.2958,0.2983,0.3033,0.3031,0.307,0.308,0.3089,0.3091,0.3139,0.3154,0.2997,0.2997,0.2997,0,0,0.253,0.2556,0.2576,0.2621,0.2658,0.2693,0.2705,0.2766,0.2807,0.2813,0.2901,0.2932,0.2951,0.3013,0.3047,0.3023,0.3134,0.3096,0.3103,0.31,0.3146,0.3161,0.3175,0.3001,0.3,0.2999,0,0,0.2546,0.2592,0.262,0.2656,0.2719,0.274,0.2769,0.2821,0.2868,0.2937,0.2959,0.3023,0.3078,0.31,0.3115,0.3197,0.3188,0.3217,0.3268,0.3315,0.3328,0.3339,0.3356,0.3369,0.3222,0.3222,0.3222,0,0.2562,0.2595,0.2636,0.2672,0.271,0.2766,0.2805,0.285,0.2922,0.2966,0.2983,0.3095,0.3113,0.3183,0.3217,0.322,0.324,0.3217,0.3328,0.3339,0.3349,0.3364,0.3376,0.3226,0.3226,0.3225,0.3225,0,0.258,0.2631,0.2656,0.2719,0.2765,0.2813,0.2871,0.294,0.3005,0.3045,0.3153,0.3187,0.3255,0.3274,0.3271,0.3361,0.3349,0.3335,0.3292,0.337,0.338,0.3392,0.3233,0.3231,0.323,0.3229,0,0,0.2547,0.2649,0.2663,0.2705,0.2798,0.283,0.292,0.3001,0.3073,0.3156,0.3241,0.3314,0.3356,0.3376,0.3394,0.3433,0.352,0.3426,0.3426,0.3435,0.3621,0.3407,0.3398,0.3539,0.3542,0.3544,0.3598,0,0.2554,0.2622,0.2677,0.2757,0.2796,0.2887,0.2958,0.3049,0.3136,0.3233,0.3299,0.3386,0.3388,0.344,0.3486,0.3517,0.3555,0.3505,0.355,0.355,0.3346,0.3406,0.3552,0.3606,0.3609,0.3611,0.3612,0,0.2542,0.2594,0.267,0.278,0.281,0.2878,0.3017,0.309,0.3231,0.3303,0.3412,0.3466,0.3561,0.3541,0.3641,0.3619,0.3632,0.3639,0.3641,0.3418,0.3357,0.3514,0.3632,0.3631,0.3629,0.3628,0.3627,0,0.2473,0.2585,0.265,0.2689,0.2821,0.2897,0.2984,0.3127,0.3203,0.3366,0.3436,0.3555,0.3627,0.3679,0.3716,0.3699,0.3798,0.3768,0.3582,0.3567,0.3709,0.3696,0.3828,0.3827,0.3827,0.3827,0.3827,0,0.2427,0.2485,0.2638,0.2671,0.2769,0.288,0.3002,0.3109,0.326,0.334,0.3477,0.3543,0.3671,0.3739,0.3753,0.37,0.3836,0.3592,0.3569,0.374,0.3731,0.3716,0.3703,0.3829,0.3829,0.3828,0.3828,0,0.2331,0.243,0.2517,0.268,0.2739,0.2818,0.3003,0.3073,0.3239,0.3349,0.3405,0.357,0.3653,0.3737,0.3819,0.3717,0.3704,0.3651,0.3832,0.3818,0.343,0.3421,0.3431,0.3424,0.3418,0.3413,0.3409,0,0.2279,0.2318,0.2507,0.2565,0.2652,0.2786,0.2863,0.3049,0.3111,0.333,0.335,0.3508,0.359,0.3522,0.3643,0.3644,0.3606,0.356,0.348,0.3413,0.3392,0.3391,0.339,0.3399,0.3398,0.3396,0.3395,0,0.2182,0.2281,0.2354,0.2474,0.2576,0.2662,0.279,0.2814,0.3005,0.3178,0.3208,0.3247,0.333,0.3382,0.3409,0.3409,0.3565,0.3497,0.3508,0.3432,0.3375,0.3359,0.3365,0.3374,0.3377,0.3379,0.338,0,0.2123,0.2154,0.2269,0.2351,0.2467,0.2495,0.2586,0.2643,0.2727,0.2948,0.2962,0.3129,0.3297,0.3263,0.3297,0.3274,0.3218,0.3091,0.3122,0.3146,0.3029,0.2913,0.2749,0,0,0,0,0,0.2044,0.2056,0.2127,0.2199,0.2301,0.2366,0.2505,0.2592,0.2771,0.2712,0.2823,0.2885,0.2925,0.3024,0.2942,0.3189,0.3244,0.308,0.3117,0.3259,0.3283,0.3172,0,0,0,0,0,0,0.199,0.2056,0.2071,0.2046,0.2063,0.2149,0.2231,0.2358,0.2329,0.2524,0.2562,0.2708,0.2798,0.294,0.2887,0.2915,0.2877,0.3194,0.3186,0.3246,0.3267,0.3287,0.318,0,0,0,0,0]},{"header":{"parameterUnit":"m.s-1","parameterCategory":2,"la1":30.2991,"la2":30.254,"lo1":-89.0895,"lo2":-89.0444,"dy":0.0017,"dx":0.0017,"nx":28,"ny":28,"refTime":"2024-06-20T21:00:00:Z","depth":"4","parameterNumber":3,"parameterNumberName":"V-component_of_CURRENTS"},"data":[0,0,0,0,0,0,0,0,0,0,0,0,0,0,0,0,0,0,0,0,0,0,0,0,0,0,0,0,0,0,0,0,0,0,0,0,0,0,0,0,0,0,0,0,0,0,0,0,0,0,0,0,0,0,0,0,0,0,0.0195,0.0195,0,0.0158,0.0157,0.0157,0.0133,0.0133,0.0133,0.0133,0.0085,0.0084,0.0082,0,0,0,0,0,0,0,0,0,0,0,0,0,0.0199,0.0199,0.0195,0.0195,0.0194,0.0158,0.0157,0.0157,0.0133,0.0133,0.0133,0.0133,0.0085,0.0084,0.0082,0,0,0,0,0,0,0,0,0,0,0,0,0,0.0182,0.0199,0.0195,0.0179,0.0177,0.0158,0.0157,0.0156,0.0133,0.0133,0.0133,0.0133,0.0086,0.0084,0.0082,0.0072,0,0,0.0076,0.0076,0,0,0,0,0,0,0,0,0.0183,0.0182,0.0182,0.018,0.0178,0.0151,0.0141,0.0128,0.0133,0.0149,0.0133,0.0133,0.0107,0.0103,0.0095,0.007,0.0067,0.0076,0.0075,0.0074,0.0074,0,0,0,0,0,0,0,0.0185,0.0183,0.0179,0.0181,0.0179,0.0158,0.0155,0.0138,0.0128,0.0148,0.0146,0.0144,0.0105,0.0097,0.0094,0.0067,0.0076,0.0075,0.0073,0.0073,0.0038,0.0038,0,0,0,0,0,0,0.0194,0.0185,0.0181,0.0178,0.0182,0.0158,0.0155,0.0159,0.0128,0.0124,0.0144,0.0143,0.01,0.0096,0.0092,0.0099,0.0074,0.0073,0.0072,0.0037,0.0038,0.0038,0,0,0,0,0,0,0.0194,0.0194,0.0182,0.0181,0.0178,0.0158,0.0162,0.0158,0.0156,0.0125,0.012,0.0146,0.01,0.0095,0.0084,0.0096,0.0072,0.007,0.0037,0.0038,0.0038,0.0099,0,0,0,0,0,0,0.0195,0.0195,0.0201,0.0182,0.0179,0.0181,0.0162,0.0158,0.0154,0.0153,0.0126,0.0121,0.0099,0.0087,0.0083,0.0093,0.0069,0.0037,0.0037,0.0038,0.0097,0.0102,0.0106,0,0,0,0,0,0.0195,0.0207,0.0202,0.0202,0.0189,0.0181,0.0178,0.0162,0.0155,0.0159,0.0139,0.0122,0.0086,0.0086,0.008,0.0091,0.0037,0.0037,0.0038,0.0095,0.0101,0.0106,0,0,0,0,0,0,0.0212,0.0205,0.02,0.0209,0.02,0.0178,0.0181,0.0169,0.0156,0.0157,0.0126,0.012,0.0113,0.0092,0.0093,0.008,0.0058,0.0057,0.0103,0.0108,0.0113,0.0132,0.0067,0,0,0,0,0,0.0219,0.0229,0.0215,0.0224,0.0222,0.0203,0.0199,0.019,0.0175,0.0169,0.0148,0.0126,0.0109,0.0102,0.0081,0.0078,0.005,0.0079,0.0083,0.0087,0.0098,0.0062,0.0064,0.0039,0.0039,0.0039,0,0,0.0228,0.0227,0.0232,0.0229,0.0222,0.0231,0.0201,0.0202,0.021,0.0166,0.0169,0.014,0.011,0.0104,0.0099,0.0091,0.0078,0.0088,0.0092,0.0101,0.0063,0.0065,0.0067,0.004,0.004,0.0039,0,0,0.0255,0.0252,0.027,0.0267,0.0264,0.0254,0.0259,0.0241,0.0234,0.023,0.02,0.0179,0.0154,0.0134,0.0121,0.0136,0.01,0.0129,0.0171,0.0136,0.0138,0.0139,0.0105,0.0103,0.0134,0.0135,0.0135,0,0.0266,0.0289,0.0273,0.029,0.0297,0.0271,0.0293,0.0282,0.0262,0.0262,0.0241,0.0201,0.0169,0.0165,0.0168,0.0147,0.0122,0.0157,0.0143,0.0143,0.0144,0.0108,0.0105,0.0138,0.0137,0.0137,0.0137,0,0.0305,0.0324,0.0335,0.0353,0.0356,0.037,0.0357,0.0357,0.0342,0.0328,0.0316,0.0267,0.0247,0.0227,0.0202,0.0194,0.0174,0.015,0.0133,0.015,0.0111,0.0107,0.0142,0.0141,0.014,0.0139,0,0,0.0332,0.0358,0.0365,0.039,0.0392,0.0405,0.0417,0.0424,0.0443,0.0404,0.0416,0.0367,0.0338,0.0321,0.028,0.0245,0.0216,0.0207,0.0203,0.018,0.0141,0.0117,0.0109,0.0192,0.0192,0.0192,0.0112,0,0.037,0.0421,0.0421,0.0475,0.0502,0.0488,0.0509,0.051,0.0496,0.0498,0.0441,0.0435,0.0376,0.0369,0.0324,0.0246,0.0208,0.024,0.0122,0.0118,0.0101,0.0105,0.0191,0.0109,0.0107,0.0107,0.0106,0,0.0412,0.0443,0.0503,0.0551,0.0562,0.0592,0.0628,0.0642,0.063,0.0619,0.0592,0.0542,0.0493,0.0435,0.0315,0.034,0.025,0.018,0.0175,0.0131,0.0087,0.0086,0.0098,0.0098,0.0099,0.01,0.01,0,0.045,0.0504,0.0561,0.0575,0.0619,0.0651,0.0677,0.0685,0.0712,0.07,0.071,0.0635,0.0607,0.0486,0.0335,0.0327,0.0194,0.016,0.0054,0.0051,0.0069,0.0068,0.0073,0.0073,0.0073,0.0073,0.0074,0,0.0491,0.0538,0.0592,0.0623,0.0706,0.0713,0.079,0.08,0.0821,0.0864,0.0784,0.0787,0.0618,0.0516,0.0368,0.0203,0.0216,0.0065,0.0031,0.0096,0.0099,0.0066,0.0066,0.007,0.0071,0.0072,0.0072,0,0.0524,0.0554,0.0627,0.0695,0.0728,0.079,0.0877,0.0923,0.0936,0.0985,0.0986,0.0906,0.0773,0.0588,0.039,0.0257,0.0091,0.0026,0.0118,0.0089,-0.0038,-0.0034,-0.0098,-0.0099,-0.01,-0.0101,-0.0102,0,0.0542,0.0585,0.0687,0.0741,0.0781,0.0873,0.0938,0.0984,0.1033,0.1057,0.1081,0.0977,0.0894,0.0608,0.0404,0.012,0.007,-0.0022,-0.0042,-0.0027,-0.0055,-0.0048,-0.0042,-0.0104,-0.0105,-0.0105,-0.0105,0,0.0578,0.0619,0.0681,0.0794,0.0881,0.0978,0.107,0.1115,0.1165,0.1179,0.1158,0.1007,0.0856,0.0618,0.0396,0.019,0.0034,-0.0036,-0.0035,-0.0055,-0.0036,-0.006,-0.0053,-0.0109,-0.0109,-0.0108,-0.0108,0,0.0605,0.0654,0.0737,0.0839,0.0951,0.105,0.1097,0.1155,0.1207,0.1223,0.1218,0.1053,0.0963,0.0655,0.0455,0.0245,0.0178,0.0094,0.0087,0.0089,0.0155,0.0207,0.0184,0,0,0,0,0,0.0625,0.0677,0.077,0.0881,0.0993,0.106,0.1171,0.1205,0.1256,0.125,0.1235,0.1092,0.08,0.0683,0.0468,0.0407,0.0127,0.0144,0.0023,-0.0133,-0.0128,-0.0086,0,0,0,0,0,0,0.0634,0.0719,0.0764,0.0901,0.0978,0.1105,0.1179,0.1212,0.1208,0.1224,0.1079,0.1018,0.0738,0.0921,0.0458,0.0397,0.0284,0.0016,0.001,-0.0136,-0.0132,-0.0128,-0.0083,0,0,0,0,0]}]]